Regional Weather Roundup
Issued by NWS

Home | Current Version | Previous Version | Graphics & Text | Print | Product List | Glossary On
Versions: 1 2 3 4 5 6 7 8 9 10 11 12 13 14 15 16 17 18 19 20 21 22 23 24 25 26 27 28 29 30 31 32 33 34 35 36 37 38 39 40 41 42 43 44 45 46 47 48 49 50
000
ASUS43 KLOT 160810
RWRIL

ILLINOIS REGIONAL WEATHER ROUNDUP
NATIONAL WEATHER SERVICE CHICAGO/ROMEOVILLE IL
300 AM CDT TUE SEP 16 2014

NOTE: "FAIR" INDICATES FEW OR NO CLOUDS BELOW 12,000 FEET WITH NO
SIGNIFICANT WEATHER AND/OR OBSTRUCTIONS TO VISIBILITY.

* THESE STATIONS ARE NOT UNDER NWS QUALITY CONTROL. THEY ALSO MAY NOT
  REPORT WEATHER SUCH AS PRECIPITATION OR FOG.

ILZ001-002-007-009-015-016-024-160900-
NORTHWEST ILLINOIS

CITY           SKY/WX    TMP DP  RH WIND       PRES   REMARKS
MOLINE         CLEAR     44  42  93 CALM      30.23S FOG
STERLING*      CLEAR     43  39  87 CALM      30.22R
SAVANNA*       CLEAR     42  40  95 CALM      30.22S
$$

ILZ003-004-008-010-011-017-018-160900-
NORTH CENTRAL ILLINOIS

CITY           SKY/WX    TMP DP  RH WIND       PRES   REMARKS
ROCKFORD       CLEAR     44  42  93 N3        30.22S
FREEPORT*      CLEAR     42  41  96 CALM      30.23S
ROCHELLE*      FOG       39  38  98 CALM      30.21S VSB 1/2
DE KALB*       CLEAR     43  43  98 NW5       30.20S
PERU*          CLEAR     43  42  97 W7        30.22R FOG
$$

ILZ005-006-012>014-019>023-160900-
NORTHEAST ILLINOIS

CITY           SKY/WX    TMP DP  RH WIND       PRES   REMARKS
CHICAGO-OHARE  CLEAR     49  46  90 W3        30.18S
CHICAGO-MIDWAY PTCLDY    51  47  86 NW6       30.19R
AURORA         CLEAR     42  40  92 CALM      30.20S FOG
LANSING*       CLEAR     48  47  96 NW3       30.19R
JOLIET*        CLEAR     47  46  94 CALM      30.21S
WAUKEGAN       CLEAR     45  43  93 NW3       30.17F
DUPAGE AIRPORT CLEAR     45  43  93 W3        30.19S
KANKAKEE*      CLEAR     51  49  93 N5        30.19R
WHEELING       CLEAR     47  44  90 N3        30.19F
MORRIS*        CLEAR     46  46 100 CALM      30.19F
ROMEOVILLE*    CLEAR     46  46 100 N3        30.19F
NORTHERLY ISL    N/A     54  46  74 W3          N/A
$$

LMZ740>746-160900-
SOUTHERN LAKE MICHIGAN

STATION/POSITION SKY/WX   TEMP    WIND        PRES    VSBY  WAVE
                          AIR SEA DIR/SP/G                  HT/PER
                          (F)     (DEG/KT/KT) (MB)    (MI)  (FT/S)
SOUTHERN BUOY              58 64  310/  8/ 10 1021.7S         1/ 3
WAUKEGAN HARBOR            50     310/  5/  7   N/A
HARRISON CRIB              54     340/ 14/ 16   N/A
BURNHAM HARBOR             54     280/  2/  7   N/A
CALUMET HARBOR             52     290/  3/  5 1020.7R
MICHIGAN CITY              58     350/ 14/ 18   N/A
MICHIGAN CITY 6N           59 64   10/ 12/ 16   N/A           4/ 5
ST. JOSEPH                 56 66   70/  8/ 12   N/A           2/ 4
$$

ILZ025>027-034>036-040-047-049-050-058-095>099-160900-
WEST-CENTRAL ILLINOIS

CITY           SKY/WX    TMP DP  RH WIND       PRES   REMARKS
QUINCY         CLEAR     48  46  93 N6        30.23R
GALESBURG*     CLOUDY    41  41  98 CALM      30.23S VSB 1
MACOMB*        CLEAR     44  44 100 N5        30.25S
JACKSONVILLE*  CLOUDY    56  55  94 CALM      30.22S
PITTSFIELD*    CLOUDY    56  51  86 CALM      30.23S
$$

ILZ028>032-037-038-041>044-048-051>054-059>061-160900-
CENTRAL ILLINOIS

CITY           SKY/WX    TMP DP  RH WIND       PRES   REMARKS
PONTIAC        PTCLDY    48  48 100 CALM      30.20S FOG
DECATUR        CLOUDY    56  53  90 N9        30.19S
PEORIA         CLEAR     51  47  86 N3        30.22S
LACON*         FOG       44  43  97 CALM      30.21S VSB 1/4
LINCOLN*       CLOUDY    55  52  92 N3        30.19S
SPRINGFIELD    CLOUDY    55  53  93 N7        30.21S
TAYLORVILLE    CLEAR     50  50 100 NW5       30.20R FOG
$$

ILZ033-039-045-046-055>057-062-063-160900-
EAST-CENTRAL ILLINOIS

CITY           SKY/WX    TMP DP  RH WIND       PRES   REMARKS
CHAMPAIGN      CLOUDY    55  53  93 N8        30.18S FOG
DANVILLE*      CLOUDY    53  53  99 NW3       30.15R FOG
RANTOUL*       CLOUDY    56  54  91 N8        30.19R FOG
MATTOON        CLOUDY    55  52  89 N9        30.16R
PARIS*         CLOUDY    56  55  99 N7        30.16R
$$

ILZ079-100>102-160900-
SOUTHWEST ILLINOIS

CITY           SKY/WX    TMP DP  RH WIND       PRES   REMARKS
ALTON          CLOUDY    57  55  93 N3        30.20S
BELLEVILLE     CLOUDY    58  57  98 W5        30.18R
CAHOKIA*       CLOUDY    60  56  86 N9        30.19S
SPARTA*        CLOUDY    58  56  93 N3        30.19R
$$

ILZ064>066-069>071-074>076-080>082-084>086-088>090-092>094-160900-
SOUTH-CENTRAL ILLINOIS

CITY           SKY/WX    TMP DP  RH WIND       PRES   REMARKS
CARBONDALE     CLOUDY    63  57  82 N7        30.16R
CAIRO*         CLOUDY    67  63  86 N7        30.13R
EFFINGHAM*     CLOUDY    56  52  85 N8        30.17R
MARION         CLOUDY    63  59  88 N3        30.15S
MT. VERNON     CLOUDY    59  54  82 N6        30.16S
CENTRALIA*     CLOUDY    58  54  86 N8        30.17R
SALEM*         CLOUDY    60  58  93 N7        30.17S
METROPOLIS*    CLOUDY    65  63  93 N8        30.11S
$$

ILZ067-068-072-073-078-083-087-091-160900-
SOUTHEAST ILLINOIS

CITY           SKY/WX    TMP DP  RH WIND       PRES   REMARKS
LAWRENCEVILLE  CLOUDY    59  57  93 N10       30.13S
FLORA*         CLEAR     58  55  91 N7        30.16S
FAIRFIELD*     CLOUDY   N/A N/A N/A NW3       30.14S
HARRISBURG*    CLOUDY    62  60  96 N3        30.15S
ROBINSON*      CLOUDY    59  58  95 N8        30.15R
CARMI*         CLOUDY    62  60  95 NW5       30.13S
$$

ABBREVIATIONS USED IN REMARKS
   TC - TEMPERATURE IN CELSIUS
  WCI - WIND CHILL INDEX
   HX - HEAT INDEX
  VSB - VISIBILITY
$$




USA.gov is the U.S. government's official web portal to all federal, state and local government web resources and services.